Location: Mentone
(34.5413°N, 85.5351°W)
Time: 06:35:39
(UTC-05:00)

Cosmos 2026 Rocket - Visible Passes

Search period start: 29 May 2016 00:00
Search period end: 08 June 2016 00:00
Orbit: 939 x 1002 km, 82.9° (Epoch: 29 May)

Date Brightness Start Highest point End Pass type
(mag) Time Alt. Az. Time Alt. Az. Time Alt. Az.
29 May 4.5 00:13:24 53° NW 00:13:24 53° NW 00:18:30 10° N visible
29 May 5.1 22:52:27 29° ENE 22:52:27 29° ENE 22:56:41 10° NNE visible
30 May 5.2 00:37:00 31° WNW 00:37:00 31° WNW 00:41:55 10° NNW visible
30 May 4.3 23:16:02 54° ENE 23:16:02 54° ENE 23:21:09 10° NNE visible
31 May 5.9 01:00:34 16° WNW 01:00:52 17° WNW 01:04:35 10° NNW visible
31 May 5.9 21:55:03 12° ENE 21:55:03 12° ENE 21:56:46 10° ENE visible
31 May 4.0 23:39:36 71° NW 23:39:36 71° NW 23:45:10 10° N visible
01 Jun 5.2 22:18:36 24° E 22:18:36 24° E 22:22:52 10° NE visible
02 Jun 4.8 00:03:08 40° WNW 00:03:08 40° WNW 00:08:47 10° N visible
02 Jun 4.4 22:42:07 45° E 22:42:07 45° E 22:47:34 10° NNE visible
03 Jun 5.6 00:26:39 21° W 00:27:18 22° WNW 00:31:50 10° NNW visible
03 Jun 3.8 23:05:37 85° ESE 23:05:41 85° E 23:11:46 10° N visible
04 Jun 6.3 00:50:13 10° W 00:51:40 11° WNW 00:53:07 10° NW visible
04 Jun 5.4 21:44:34 18° E 21:44:55 18° E 21:48:51 10° NE visible
04 Jun 4.4 23:29:06 50° W 23:29:39 52° W 23:35:33 10° N visible
05 Jun 4.6 22:08:02 34° E 22:08:32 34° E 22:13:55 10° NNE visible
05 Jun 5.3 23:52:34 26° W 23:53:45 28° WNW 23:58:52 10° NNW visible
06 Jun 3.8 22:31:28 59° SE 22:32:18 66° E 22:38:17 10° NNE visible
07 Jun 6.1 00:15:59 13° W 00:18:03 15° WNW 00:21:19 10° NW visible
07 Jun 5.6 21:10:20 13° E 21:11:41 14° E 21:14:29 10° NE visible
07 Jun 4.1 22:54:52 53° SW 22:56:12 68° W 23:02:14 10° N visible
